EWG75J LSGG-EDDL

Flight info

Callsign EWG75J
Flight time 1h 4m
Altitude 30000
Route ARBOS DCT PENDU DCT EPL DCT ROUSY M624 DIK/N0408F310 N853 ARCKY T853 NVO T857 BIKMU BIKMU1A
Aircraft A320/M-SDE3FGHIRWY/LB1

Departure

Time 2026-02-18 21:42
Airport Geneva International Airport (LSGG)

Arrival

Time 2026-02-18 22:46
Airport Düsseldorf Airport (EDDL)
Time Latitude Longitude Altitude Speed Heading
2026-02-18 20:51 46.23154 6.10743 1398 ft 0 kts 134°
2026-02-18 21:30 46.23155 6.10742 1393 ft 1 kts 134°
2026-02-18 21:31 46.23166 6.10725 1424 ft 3 kts 126°
2026-02-18 21:31 46.23176 6.10701 1401 ft 3 kts 102°
2026-02-18 21:31 46.23176 6.10676 1401 ft 2 kts 56°
2026-02-18 21:31 46.23173 6.10668 1399 ft 0 kts 45°
2026-02-18 21:35 46.23174 6.10670 1399 ft 0 kts 45°
2026-02-18 21:35 46.23188 6.10690 1404 ft 8 kts 45°
2026-02-18 21:35 46.23226 6.10746 1393 ft 7 kts 45°
2026-02-18 21:36 46.23260 6.10780 1399 ft 5 kts 17°
2026-02-18 21:36 46.23294 6.10791 1393 ft 6 kts 13°
2026-02-18 21:36 46.23350 6.10789 1395 ft 11 kts 327°
2026-02-18 21:36 46.23424 6.10709 1395 ft 16 kts 338°
2026-02-18 21:37 46.23613 6.10951 1389 ft 20 kts 46°
2026-02-18 21:37 46.23710 6.11096 1386 ft 22 kts 44°
2026-02-18 21:37 46.23834 6.11277 1376 ft 27 kts 44°
2026-02-18 21:38 46.23969 6.11472 1373 ft 29 kts 45°
2026-02-18 21:38 46.24108 6.11669 1367 ft 29 kts 47°
2026-02-18 21:38 46.24251 6.11879 1362 ft 29 kts 45°
2026-02-18 21:38 46.24391 6.12084 1368 ft 27 kts 45°
2026-02-18 21:39 46.24509 6.12254 1372 ft 22 kts 46°
2026-02-18 21:39 46.24620 6.12420 1369 ft 25 kts 44°
2026-02-18 21:39 46.24747 6.12608 1362 ft 25 kts 45°
2026-02-18 21:39 46.24857 6.12696 1364 ft 15 kts 18°
2026-02-18 21:40 46.24941 6.12735 1367 ft 10 kts 17°
2026-02-18 21:40 46.24968 6.12745 1369 ft 0 kts
2026-02-18 21:40 46.24974 6.12745 1369 ft 2 kts
2026-02-18 21:40 46.24977 6.12745 1369 ft 2 kts 358°
2026-02-18 21:41 46.24959 6.12594 1371 ft 16 kts 227°
2026-02-18 21:41 46.24752 6.12284 1372 ft 77 kts 225°
2026-02-18 21:41 46.24228 6.11516 1374 ft 135 kts 225°
2026-02-18 21:42 46.23434 6.10413 1415 ft 177 kts 223°
2026-02-18 21:42 46.22519 6.09183 1920 ft 182 kts 223°
2026-02-18 21:42 46.21632 6.07896 2670 ft 181 kts 225°
2026-02-18 21:42 46.20720 6.06519 3129 ft 200 kts 225°
2026-02-18 21:43 46.19693 6.04973 3464 ft 225 kts 223°
2026-02-18 21:43 46.18549 6.03277 3948 ft 244 kts 224°
2026-02-18 21:43 46.17369 6.01527 4951 ft 241 kts 224°
2026-02-18 21:43 46.16205 5.99803 5987 ft 238 kts 223°
2026-02-18 21:44 46.15061 5.98089 6942 ft 237 kts 224°
2026-02-18 21:44 46.14110 5.96123 7780 ft 246 kts 245°
2026-02-18 21:44 46.13875 5.93632 8576 ft 261 kts 271°
2026-02-18 21:44 46.14493 5.91104 9440 ft 279 kts 297°
2026-02-18 21:45 46.17992 5.88112 10489 ft 326 kts 339°
2026-02-18 21:45 46.20262 5.87255 10808 ft 345 kts 341°
2026-02-18 21:45 46.22632 5.86469 11444 ft 353 kts 342°
2026-02-18 21:46 46.25055 5.85707 12171 ft 359 kts 343°
2026-02-18 21:46 46.27507 5.84929 12886 ft 363 kts 343°
2026-02-18 21:46 46.29989 5.84118 13575 ft 368 kts 342°
2026-02-18 21:46 46.32498 5.83268 14195 ft 372 kts 342°
2026-02-18 21:47 46.35023 5.82389 14846 ft 375 kts 341°
2026-02-18 21:47 46.37602 5.81475 15496 ft 378 kts 341°
2026-02-18 21:47 46.40153 5.80520 16173 ft 378 kts 336°
2026-02-18 21:47 46.42532 5.79079 16806 ft 374 kts 326°
2026-02-18 21:48 46.44805 5.77245 17487 ft 375 kts 324°
2026-02-18 21:48 46.47087 5.75398 18139 ft 377 kts 325°
2026-02-18 21:48 46.49344 5.73585 19145 ft 361 kts 324°
2026-02-18 21:48 46.51506 5.71857 20184 ft 351 kts 324°
2026-02-18 21:49 46.55758 5.68431 20657 ft 348 kts 324°
2026-02-18 21:49 46.57836 5.66747 20674 ft 335 kts 324°
2026-02-18 21:49 46.59821 5.65143 20669 ft 316 kts 324°
2026-02-18 21:50 46.61824 5.63849 20674 ft 317 kts 335°
2026-02-18 21:50 46.63992 5.63132 20666 ft 323 kts 348°
2026-02-18 21:50 46.66257 5.63066 20667 ft 329 kts
2026-02-18 21:50 46.68521 5.63698 20669 ft 334 kts 14°
2026-02-18 21:51 46.70667 5.65039 20671 ft 338 kts 28°
2026-02-18 21:51 46.72579 5.67031 20664 ft 339 kts 42°
2026-02-18 21:51 46.74298 5.69404 20664 ft 341 kts 43°
2026-02-18 21:51 46.76037 5.71802 20673 ft 353 kts 43°
2026-02-18 21:52 46.77881 5.74324 20666 ft 371 kts 42°
2026-02-18 21:52 46.79803 5.76949 20674 ft 387 kts 42°
2026-02-18 21:52 46.81119 5.78750 20756 ft 397 kts 43°
2026-02-18 21:52 46.83175 5.81565 20888 ft 412 kts 43°
2026-02-18 21:53 46.87447 5.87450 21592 ft 428 kts 43°
2026-02-18 21:53 46.89623 5.90460 22096 ft 432 kts 43°
2026-02-18 21:53 46.91813 5.93491 22597 ft 436 kts 43°
2026-02-18 21:54 46.94049 5.96519 23096 ft 439 kts 39°
2026-02-18 21:54 46.96547 5.99099 23508 ft 441 kts 28°
2026-02-18 21:54 46.99333 6.01028 23902 ft 442 kts 17°
2026-02-18 21:54 47.02286 6.02257 24287 ft 441 kts
2026-02-18 21:55 47.05320 6.02767 24652 ft 438 kts 356°
2026-02-18 21:55 47.08371 6.02826 25028 ft 440 kts 355°
2026-02-18 21:55 47.11444 6.02872 25397 ft 443 kts 355°
2026-02-18 21:55 47.14534 6.02919 25762 ft 446 kts 355°
2026-02-18 21:56 47.17644 6.02969 26125 ft 448 kts 355°
2026-02-18 21:56 47.20732 6.03019 26475 ft 451 kts 355°
2026-02-18 21:56 47.23883 6.03071 26828 ft 454 kts 355°
2026-02-18 21:56 47.27046 6.03125 27186 ft 456 kts 354°
2026-02-18 21:57 47.33436 6.03235 27871 ft 462 kts 354°
2026-02-18 21:57 47.36657 6.03295 28211 ft 464 kts 354°
2026-02-18 21:57 47.39891 6.03373 28537 ft 466 kts 354°
2026-02-18 21:58 47.43144 6.03468 28852 ft 469 kts 354°
2026-02-18 21:58 47.46410 6.03563 29154 ft 471 kts 354°
2026-02-18 21:58 47.49695 6.03657 29467 ft 473 kts 354°
2026-02-18 21:58 47.52994 6.03753 29641 ft 473 kts 354°
2026-02-18 21:59 47.56231 6.03852 29661 ft 457 kts 354°
2026-02-18 21:59 47.59378 6.03953 29660 ft 449 kts 354°
2026-02-18 21:59 47.65593 6.04129 29663 ft 445 kts 354°
2026-02-18 22:00 47.71773 6.04274 29656 ft 444 kts 354°
2026-02-18 22:00 47.77950 6.04435 29652 ft 443 kts 354°
2026-02-18 22:01 47.87198 6.04697 29654 ft 443 kts 355°
2026-02-18 22:02 47.93356 6.04875 29650 ft 442 kts 355°
2026-02-18 22:02 47.99515 6.05050 29653 ft 443 kts 355°
2026-02-18 22:03 48.05675 6.05216 29634 ft 442 kts 355°
2026-02-18 22:03 48.11771 6.05387 29628 ft 440 kts 355°
2026-02-18 22:04 48.17892 6.05555 29621 ft 439 kts 355°
2026-02-18 22:04 48.23985 6.05715 29622 ft 438 kts 355°
2026-02-18 22:05 48.33100 6.05979 29633 ft 436 kts 355°
2026-02-18 22:05 48.39157 6.06248 29639 ft 435 kts 356°
2026-02-18 22:06 48.45193 6.06570 29640 ft 433 kts 356°
2026-02-18 22:06 48.51202 6.06880 29645 ft 431 kts 356°
2026-02-18 22:07 48.57187 6.07160 29639 ft 429 kts 356°
2026-02-18 22:07 48.63144 6.07428 29642 ft 428 kts 356°
2026-02-18 22:08 48.69085 6.07708 29664 ft 426 kts 356°
2026-02-18 22:08 48.75007 6.07990 29666 ft 425 kts 357°
2026-02-18 22:09 48.83856 6.08424 29638 ft 423 kts 357°
2026-02-18 22:10 48.89743 6.08704 29636 ft 423 kts 357°
2026-02-18 22:10 48.95619 6.08978 29628 ft 422 kts 357°
2026-02-18 22:11 49.01492 6.09255 29623 ft 422 kts 357°
2026-02-18 22:11 49.07358 6.09535 29621 ft 422 kts 357°
2026-02-18 22:12 49.13223 6.09822 29623 ft 421 kts 358°
2026-02-18 22:12 49.19083 6.10110 29630 ft 421 kts 358°
2026-02-18 22:13 49.27861 6.10543 29641 ft 420 kts 357°
2026-02-18 22:13 49.33711 6.10824 29643 ft 420 kts 357°
2026-02-18 22:14 49.39549 6.11116 29649 ft 420 kts 357°
2026-02-18 22:14 49.45386 6.11408 29655 ft 419 kts 357°
2026-02-18 22:15 49.51211 6.11670 29658 ft 418 kts 356°
2026-02-18 22:15 49.57023 6.11874 29658 ft 418 kts 356°
2026-02-18 22:16 49.62830 6.12083 29661 ft 417 kts 356°
2026-02-18 22:16 49.68624 6.12305 29664 ft 416 kts 356°
2026-02-18 22:17 49.77236 6.12652 29519 ft 402 kts 356°
2026-02-18 22:17 49.80009 6.12766 29137 ft 396 kts 356°
2026-02-18 22:18 49.82747 6.12873 28698 ft 391 kts 356°
2026-02-18 22:18 49.85459 6.12972 28260 ft 387 kts 356°
2026-02-18 22:18 49.88142 6.13053 27814 ft 384 kts 355°
2026-02-18 22:18 49.90801 6.13082 27378 ft 380 kts 354°
2026-02-18 22:19 49.93437 6.13080 26948 ft 377 kts 354°
2026-02-18 22:19 49.96046 6.13071 26525 ft 374 kts 354°
2026-02-18 22:19 49.98638 6.13070 26088 ft 371 kts 355°
2026-02-18 22:19 50.01212 6.13072 25655 ft 368 kts 355°
2026-02-18 22:20 50.03726 6.13080 25227 ft 365 kts 355°
2026-02-18 22:20 50.06257 6.13096 24815 ft 362 kts 355°
2026-02-18 22:20 50.08769 6.13116 24395 ft 360 kts 355°
2026-02-18 22:20 50.11267 6.13135 23975 ft 358 kts 355°
2026-02-18 22:21 50.16208 6.13168 23124 ft 352 kts 355°
2026-02-18 22:21 50.18654 6.13176 22635 ft 350 kts 355°
2026-02-18 22:21 50.21085 6.13181 22175 ft 348 kts 355°
2026-02-18 22:22 50.23500 6.13195 21740 ft 346 kts 356°
2026-02-18 22:22 50.25900 6.13212 21317 ft 343 kts 356°
2026-02-18 22:22 50.28279 6.13493 20896 ft 345 kts
2026-02-18 22:22 50.30601 6.14474 20480 ft 347 kts 17°
2026-02-18 22:23 50.32770 6.16147 20081 ft 349 kts 29°
2026-02-18 22:23 50.34797 6.18230 19696 ft 347 kts 30°
2026-02-18 22:23 50.36811 6.20302 19324 ft 345 kts 30°
2026-02-18 22:23 50.38809 6.22357 18951 ft 343 kts 30°
2026-02-18 22:24 50.40798 6.24404 18586 ft 341 kts 30°
2026-02-18 22:24 50.42773 6.26435 18224 ft 339 kts 30°
2026-02-18 22:24 50.44742 6.28459 17861 ft 337 kts 30°
2026-02-18 22:24 50.46695 6.30471 17446 ft 335 kts 30°
2026-02-18 22:25 50.50554 6.34417 16664 ft 331 kts 28°
2026-02-18 22:25 50.52522 6.36274 16285 ft 329 kts 27°
2026-02-18 22:25 50.54522 6.38092 15910 ft 327 kts 26°
2026-02-18 22:26 50.56464 6.39837 15570 ft 325 kts 26°
2026-02-18 22:26 50.58420 6.41598 15225 ft 323 kts 26°
2026-02-18 22:26 50.60365 6.43360 14887 ft 322 kts 26°
2026-02-18 22:26 50.62294 6.45123 14651 ft 320 kts 27°
2026-02-18 22:27 50.64216 6.46893 14691 ft 320 kts 27°
2026-02-18 22:27 50.66138 6.48669 14703 ft 320 kts 27°
2026-02-18 22:27 50.68062 6.50447 14709 ft 320 kts 27°
2026-02-18 22:27 50.69980 6.52224 14656 ft 319 kts 27°
2026-02-18 22:28 50.71891 6.54001 14324 ft 317 kts 27°
2026-02-18 22:28 50.73787 6.55764 13995 ft 315 kts 27°
2026-02-18 22:28 50.75672 6.57516 13671 ft 313 kts 27°
2026-02-18 22:28 50.77544 6.59256 13322 ft 312 kts 27°
2026-02-18 22:29 50.81269 6.62662 12617 ft 306 kts 22°
2026-02-18 22:29 50.83248 6.63792 12257 ft 300 kts
2026-02-18 22:29 50.85293 6.64315 11865 ft 297 kts
2026-02-18 22:30 50.87334 6.64744 11513 ft 295 kts
2026-02-18 22:30 50.89363 6.65171 11151 ft 293 kts
2026-02-18 22:30 50.91381 6.65597 10788 ft 291 kts
2026-02-18 22:30 50.93384 6.66022 10438 ft 289 kts
2026-02-18 22:31 50.95370 6.66447 10128 ft 286 kts
2026-02-18 22:31 50.97309 6.66862 9801 ft 284 kts
2026-02-18 22:31 50.99264 6.67282 9435 ft 282 kts
2026-02-18 22:31 51.01233 6.67705 9026 ft 281 kts
2026-02-18 22:32 51.03144 6.67877 8645 ft 277 kts 355°
2026-02-18 22:32 51.05065 6.67716 8253 ft 275 kts 355°
2026-02-18 22:32 51.07001 6.67554 7853 ft 274 kts 355°
2026-02-18 22:32 51.08880 6.67399 7459 ft 273 kts 355°
2026-02-18 22:33 51.12614 6.68186 6765 ft 271 kts 15°
2026-02-18 22:33 51.14425 6.69017 6721 ft 272 kts 15°
2026-02-18 22:33 51.16246 6.69846 6728 ft 273 kts 15°
2026-02-18 22:34 51.18071 6.70678 6727 ft 272 kts 14°
2026-02-18 22:34 51.19891 6.71510 6727 ft 272 kts 14°
2026-02-18 22:34 51.21706 6.72339 6727 ft 272 kts 14°
2026-02-18 22:34 51.23524 6.73169 6728 ft 272 kts 15°
2026-02-18 22:35 51.25342 6.74000 6727 ft 271 kts 14°
2026-02-18 22:35 51.27153 6.74822 6733 ft 271 kts 14°
2026-02-18 22:35 51.28973 6.75601 6727 ft 271 kts 13°
2026-02-18 22:35 51.30177 6.76112 6728 ft 271 kts 13°
2026-02-18 22:36 51.32038 6.76704 6723 ft 268 kts 358°
2026-02-18 22:36 51.33826 6.76061 6639 ft 263 kts 332°
2026-02-18 22:36 51.35341 6.74523 6232 ft 261 kts 320°
2026-02-18 22:36 51.36416 6.72233 5807 ft 259 kts 291°
2026-02-18 22:37 51.35971 6.66864 5286 ft 245 kts 237°
2026-02-18 22:37 51.34987 6.64711 5153 ft 234 kts 233°
2026-02-18 22:38 51.33068 6.60780 4828 ft 216 kts 233°
2026-02-18 22:38 51.32145 6.58913 4551 ft 212 kts 233°
2026-02-18 22:38 51.31237 6.57068 4236 ft 210 kts 233°
2026-02-18 22:39 51.29460 6.53377 3584 ft 209 kts 233°
2026-02-18 22:39 51.28587 6.51535 3287 ft 208 kts 233°
2026-02-18 22:39 51.27724 6.49686 3041 ft 207 kts 233°
2026-02-18 22:39 51.26868 6.47829 3003 ft 208 kts 233°
2026-02-18 22:40 51.25144 6.44111 3004 ft 209 kts 233°
2026-02-18 22:40 51.24271 6.42260 3005 ft 209 kts 230°
2026-02-18 22:40 51.23144 6.40890 3000 ft 203 kts 202°
2026-02-18 22:41 51.20458 6.41432 3002 ft 206 kts 143°
2026-02-18 22:41 51.19585 6.43245 3002 ft 210 kts 113°
2026-02-18 22:41 51.19130 6.45468 3010 ft 212 kts 109°
2026-02-18 22:42 51.18686 6.47710 2997 ft 213 kts 109°
2026-02-18 22:42 51.18235 6.49976 3007 ft 214 kts 108°
2026-02-18 22:42 51.17977 6.52221 3003 ft 200 kts 89°
2026-02-18 22:42 51.18206 6.54350 3029 ft 193 kts 69°
2026-02-18 22:43 51.18842 6.56173 2981 ft 191 kts 51°
2026-02-18 22:43 51.19651 6.57849 2781 ft 189 kts 50°
2026-02-18 22:43 51.20448 6.59505 2554 ft 188 kts 51°
2026-02-18 22:43 51.21238 6.61151 2295 ft 186 kts 51°
2026-02-18 22:44 51.22017 6.62775 2029 ft 182 kts 49°
2026-02-18 22:44 51.22765 6.64336 1779 ft 173 kts 50°
2026-02-18 22:44 51.23472 6.65813 1542 ft 163 kts 48°
2026-02-18 22:44 51.24142 6.67212 1312 ft 155 kts 49°
2026-02-18 22:45 51.25427 6.69896 918 ft 149 kts 51°
2026-02-18 22:45 51.26035 6.71168 786 ft 140 kts 54°
2026-02-18 22:45 51.26611 6.72373 638 ft 133 kts 57°
2026-02-18 22:46 51.27168 6.73537 477 ft 131 kts 57°
2026-02-18 22:46 51.27718 6.74689 310 ft 130 kts 57°
2026-02-18 22:46 51.28266 6.75826 136 ft 128 kts 56°
2026-02-18 22:46 51.28595 6.76554 127 ft 17 kts 51°
2026-02-18 22:47 51.28608 6.76580 127 ft 9 kts 51°
2026-02-18 22:47 51.28733 6.76838 128 ft 34 kts 52°
2026-02-18 22:47 51.28869 6.77127 127 ft 31 kts 53°
2026-02-18 22:47 51.28991 6.77381 128 ft 26 kts 50°
2026-02-18 22:48 51.29022 6.77539 126 ft 14 kts 116°
2026-02-18 22:48 51.28946 6.77640 129 ft 13 kts 148°
2026-02-18 22:48 51.28875 6.77587 129 ft 11 kts 232°
2026-02-18 22:48 51.28830 6.77494 128 ft 10 kts 232°
2026-02-18 22:49 51.28751 6.77337 128 ft 9 kts 232°
2026-02-18 22:49 51.28714 6.77260 130 ft 8 kts 233°
2026-02-18 22:49 51.28654 6.77131 129 ft 25 kts 234°
2026-02-18 22:50 51.28545 6.76900 125 ft 26 kts 237°
2026-02-18 22:50 51.28446 6.76791 123 ft 12 kts 149°
2026-02-18 22:50 51.28376 6.76866 128 ft 12 kts 159°
2026-02-18 22:50 51.28294 6.76861 129 ft 11 kts 188°
2026-02-18 22:51 51.28230 6.76844 129 ft 7 kts 197°
2026-02-18 22:51 51.28214 6.76793 127 ft 4 kts 253°
2026-02-18 22:51 51.28206 6.76748 128 ft 3 kts 252°
2026-02-18 22:51 51.28202 6.76731 124 ft 1 kts 252°
2026-02-18 22:52 51.28202 6.76730 124 ft 0 kts 252°